This is the latest recevied weather packets stored in our database for station/object SALIDA. If no packets are shown the sender has not sent any weather packets the latest 10 day(s).
| Time | Temp. | Humidity | Pressure | Rain* | Wind** | Luminosity | Snow |
|---|---|---|---|---|---|---|---|
| 1777884388 | 4.44° C | 55% | 1005 hPa | 0 mm | - | - | - |
| 1777883488 | 4.44° C | 55% | 1004.9 hPa | 0 mm | - | - | - |
| 1777882588 | 4.44° C | 56% | 1005.2 hPa | 0 mm | - | - | - |
| 1777881688 | 4.44° C | 55% | 1005.4 hPa | 0 mm | - | - | - |
| 1777880788 | 5° C | 54% | 1005.4 hPa | 0 mm | - | - | - |
| 1777879888 | 5° C | 51% | 1005.8 hPa | 0 mm | - | - | - |
| 1777878988 | 5.56° C | 49% | 1005.9 hPa | 0 mm | - | - | - |
| 1777878088 | 6.11° C | 50% | 1005.7 hPa | 0 mm | - | - | - |
| 1777877188 | 6.11° C | 48% | 1005.7 hPa | 0 mm | - | - | - |
| 1777876288 | 6.11° C | 48% | 1005.7 hPa | 0 mm | - | - | - |
| 1777875388 | 6.67° C | 46% | 1005.6 hPa | 0 mm | - | - | - |
| 1777874488 | 7.22° C | 45% | 1005.5 hPa | 0 mm | - | - | - |
| 1777873588 | 8.33° C | 43% | 1005.5 hPa | 0 mm | - | - | - |
| 1777872688 | 8.33° C | 42% | 1005.6 hPa | 0 mm | - | - | - |
| 1777871788 | 8.89° C | 40% | 1005.6 hPa | 0 mm | - | - | - |
| 1777870889 | 9.44° C | 40% | 1005.7 hPa | 0 mm | - | - | - |
| 1777869989 | 9.44° C | 39% | 1005.9 hPa | 0 mm | - | - | - |
| 1777869089 | 10° C | 38% | 1005.9 hPa | 0 mm | - | - | - |
| 1777868189 | 10.56° C | 36% | 1005.9 hPa | 0 mm | - | - | - |
| 1777867289 | 11.11° C | 36% | 1005.9 hPa | 0 mm | - | - | - |
| 1777866389 | 11.11° C | 35% | 1005.8 hPa | 0 mm | - | - | - |
| 1777865489 | 11.11° C | 34% | 1005.3 hPa | 0 mm | - | - | - |
| 1777864589 | 11.67° C | 34% | 1005.2 hPa | 0 mm | - | - | - |
| 1777863689 | 12.78° C | 32% | 1005.1 hPa | 0 mm | - | - | - |
| 1777862789 | 13.33° C | 30% | 1004.8 hPa | 0 mm | - | - | - |
* Rain latest hour (hover to see other rain measurements)
** Current wind speed in m/s (hover to see current wind gust speed)